Theta_e
316 316 317 318 318 319 319 319 318 319 319 322 323 323 323 322 319 318 311 317 316 326 324 311 310 310 310 305 305 302 293 291 294 297 300 307 303 308 310 310 313 327 327 329 334
315 315 315 317 317 318 319 318 317 317 319 320 322 323 322 321 317 314 322 325 325 326 311 308 306 309 304 303 301 298 292 295 300 301 301 305 303 306 304 306 310 328 331 332 333
313 313 315 315 316 317 318 318 317 317 317 317 321 323 322 320 313 309 328 326 326 323 313 311 310 308 303 301 301 299 296 302 303 305 302 300 302 307 305 303 307 317 327 329 329
311 311 312 314 315 316 317 317 317 317 317 318 322 323 322 318 299 308 328 328 326 315 312 310 308 302 300 299 303 297 302 303 304 304 302 301 302 302 304 306 309 308 319 326 327
310 310 310 311 314 316 315 316 316 316 316 317 319 323 319 310 309 317 330 326 319 314 310 308 305 303 299 301 302 300 302 304 305 304 303 306 302 302 303 306 308 309 312 316 320
311 311 311 310 311 315 315 315 316 315 316 316 317 321 313 302 318 319 318 316 315 312 310 308 305 306 303 302 299 303 303 303 304 303 302 302 301 300 304 306 306 307 306 309 311
310 310 311 310 311 313 315 315 315 315 315 315 315 319 311 306 318 318 317 314 316 313 309 311 309 304 303 301 305 304 299 300 301 301 300 302 299 301 304 305 305 305 305 307 309
309 310 310 311 311 311 313 314 314 315 315 315 314 313 307 318 317 315 314 313 316 315 313 313 312 307 304 305 303 298 297 292 299 302 303 298 294 300 303 302 302 303 303 304 307
308 309 309 310 310 310 312 313 314 315 315 315 308 311 305 320 313 314 314 311 313 317 315 317 309 303 303 296 293 294 289 292 296 303 301 298 296 300 304 303 302 301 302 303 304
307 308 309 309 310 310 311 313 313 313 312 311 309 303 311 308 313 311 312 313 311 313 311 308 301 296 295 292 288 289 290 292 292 298 300 298 295 300 303 300 302 301 302 302 303
307 307 309 310 310 310 309 305 298 296 300 297 302 304 308 314 317 309 310 311 311 308 300 303 295 292 295 296 298 296 294 292 294 301 297 297 295 298 300 297 298 300 301 302 303
306 307 308 309 310 310 308 301 300 302 295 300 299 307 312 313 306 310 310 303 304 298 303 300 294 299 301 300 298 297 294 293 297 301 298 295 294 297 300 299 300 300 300 301 302
305 306 307 308 309 307 301 301 308 306 295 298 300 298 305 311 305 306 308 304 300 298 300 297 299 303 301 298 296 296 294 294 294 299 297 293 291 294 299 299 301 302 301 302 302
305 306 306 307 301 303 298 305 307 308 288 290 296 303 304 306 302 312 312 304 302 297 299 299 303 302 299 297 298 292 299 298 297 293 288 294 286 292 296 298 301 303 302 303 302
305 305 306 306 301 300 302 306 308 304 266 290 293 310 307 302 304 305 312 306 298 298 299 296 299 299 298 298 300 296 301 298 297 292 289 293 286 289 296 296 298 299 302 302 302
304 304 305 302 303 303 307 307 303 284 273 287 295 299 299 301 301 305 305 308 305 300 300 298 304 302 301 303 302 303 299 298 296 291 285 292 289 289 292 296 298 302 302 304 305
303 304 303 304 297 305 307 301 284 277 289 286 289 297 297 297 298 299 299 297 294 290 291 296 297 302 304 298 302 299 293 287 284 284 285 293 290 293 296 301 302 302 302 304 306
304 304 302 302 305 305 302 291 278 284 285 291 290 295 292 296 297 298 296 295 298 296 292 289 287 297 301 299 296 296 295 287 281 282 286 294 288 292 301 304 304 303 304 305 307
304 298 298 302 303 305 295 282 282 286 289 289 289 285 290 294 296 296 295 294 297 298 291 290 290 299 300 301 301 296 293 298 291 291 286 288 293 298 301 301 302 303 304 309 312
297 295 296 304 307 302 289 285 284 293 293 291 284 287 284 292 293 294 294 298 297 300 300 296 289 297 299 301 301 299 300 291 292 283 282 286 288 289 296 299 302 302 302 304 311
296 290 299 307 305 295 283 285 290 294 295 290 287 286 286 286 292 292 294 298 300 299 300 297 293 291 297 294 294 295 293 295 294 291 284 283 287 296 297 301 302 302 303 304 311
293 283 301 305 290 287 285 288 293 292 296 293 293 290 288 288 287 292 292 297 304 301 296 298 293 288 291 298 300 298 295 295 289 288 291 289 288 299 300 301 302 303 305 304 305
287 286 296 302 283 285 287 290 292 292 292 292 290 293 293 289 285 289 292 301 303 299 297 299 292 286 287 293 297 294 296 297 296 293 289 286 288 301 303 302 303 301 304 306 307
288 282 289 292 290 288 285 286 288 294 293 294 293 293 291 289 292 289 291 296 302 299 302 302 295 290 284 288 292 290 293 296 295 289 289 290 292 296 300 301 302 303 303 304 309
288 284 289 283 284 286 289 288 287 287 293 294 291 291 290 285 287 288 292 295 298 300 299 299 288 294 295 295 294 293 293 294 293 294 290 292 293 297 300 300 302 304 306 309 310
285 285 286 286 288 286 287 285 286 288 289 288 288 290 291 287 288 287 291 292 291 296 295 297 288 291 289 294 295 292 294 293 294 295 294 295 293 301 303 302 302 305 307 307 308
292 294 289 285 283 282 285 286 287 290 291 293 291 290 289 291 294 295 295 295 294 292 292 292 290 287 283 291 291 286 291 293 294 296 296 291 296 300 299 301 303 303 304 306 307
Wind_Speed
12 12 12 12 11 11 10 10 10 12 14 15 14 13 16 17 21 7 10 10 5 7 7 8 8 11 8 7 7 2 1 6 7 3 5 2 4 5 4 7 6 5 8 13 14
16 16 15 13 12 12 9 9 10 10 12 15 15 14 15 15 10 14 12 7 5 4 5 6 11 13 5 7 4 5 4 11 7 4 3 3 7 3 3 2 6 14 18 16 16
16 17 17 15 13 12 11 9 9 10 11 14 15 14 13 13 7 8 3 7 6 5 5 3 8 11 7 4 8 8 9 14 13 4 6 5 4 5 3 2 3 14 17 18 12
16 16 17 16 15 14 11 10 10 9 10 13 13 13 12 4 7 3 7 8 8 4 3 4 6 7 5 7 8 5 11 11 10 5 3 5 7 7 5 7 1 2 12 12 13
15 16 17 17 16 14 12 11 10 10 10 10 14 12 7 7 13 7 5 8 4 4 5 6 8 7 10 7 9 9 10 10 11 6 6 5 5 6 7 6 6 6 4 9 11
15 14 16 17 16 15 12 11 11 10 10 10 11 12 5 18 8 18 17 10 7 7 10 9 8 12 12 10 7 9 9 9 8 6 5 3 5 2 5 7 6 7 9 8 11
16 15 16 17 16 15 13 11 10 10 9 9 10 7 11 24 12 15 16 12 14 7 7 6 4 6 6 8 8 11 8 9 5 4 4 3 8 9 10 10 9 11 10 11 11
18 16 16 16 15 14 13 11 10 10 9 8 9 8 13 8 14 21 21 22 16 9 6 9 9 6 2 7 11 8 5 7 3 6 9 4 12 13 12 9 12 12 10 9 10
18 17 17 15 15 13 12 11 10 11 9 6 4 7 10 10 14 20 14 14 15 5 8 12 7 3 7 2 6 5 6 7 7 12 10 11 13 10 13 10 12 11 9 8 8
18 18 16 16 16 12 10 9 8 6 8 5 6 8 8 11 13 14 14 14 11 8 10 9 4 4 3 4 11 6 5 10 10 11 15 20 13 8 10 5 8 8 8 7 7
18 18 19 16 16 13 4 3 1 4 6 11 8 9 16 13 5 13 16 14 12 11 13 8 7 15 15 11 12 7 11 12 8 20 8 15 11 13 13 6 8 9 10 10 12
19 18 18 15 15 14 6 8 11 9 7 22 22 16 25 18 11 12 15 14 13 19 13 10 23 16 12 13 15 18 16 20 12 13 6 9 11 9 10 7 9 11 11 12 9
18 18 18 15 16 9 11 17 13 13 5 8 16 15 12 8 13 18 12 23 20 18 20 21 10 17 17 17 19 17 20 13 12 19 9 3 6 6 7 5 7 10 11 9 12
17 18 15 14 7 5 10 9 12 10 5 7 11 9 14 12 12 14 19 16 15 24 22 19 19 17 23 22 17 17 12 12 14 8 9 6 7 7 7 12 15 18 13 16 13
17 18 17 10 8 4 5 15 11 1 1 9 18 10 13 20 6 16 20 16 22 24 22 19 22 22 22 26 20 19 9 11 11 7 3 17 3 6 7 10 12 10 11 13 11
19 19 18 9 6 11 13 6 4 6 10 7 9 17 14 24 25 9 15 17 9 17 17 24 16 18 27 22 16 18 13 18 11 3 6 13 10 9 11 10 9 14 10 14 10
20 19 16 8 6 6 8 5 10 12 8 10 6 17 22 18 21 24 19 23 17 14 20 23 27 20 22 18 18 16 5 8 6 7 16 7 10 19 6 16 20 21 13 9 10
20 22 14 10 8 13 5 7 12 13 17 9 11 13 20 15 17 25 25 17 20 16 13 19 16 27 18 31 21 20 14 8 13 12 15 10 15 13 19 24 17 12 18 10 8
24 7 5 8 14 8 6 14 6 11 18 14 16 13 21 19 17 22 26 25 20 21 16 16 20 9 24 23 25 25 17 21 12 9 0 6 11 9 22 17 14 13 10 11 12
7 7 9 10 12 9 8 18 6 14 14 22 17 8 10 17 16 11 20 23 26 22 24 10 10 23 22 28 22 24 15 15 11 18 20 8 12 9 4 11 16 12 12 10 10
3 5 5 10 8 8 13 16 14 18 17 15 24 16 14 19 19 17 14 13 19 28 23 24 16 8 7 25 30 22 20 11 5 10 14 14 16 9 12 5 5 10 8 10 10
2 4 4 6 6 3 14 24 5 24 15 16 4 20 22 20 18 12 17 15 16 20 32 26 12 23 26 18 13 28 26 23 12 10 19 19 15 1 12 8 4 2 8 7 10
3 5 5 4 8 7 7 14 13 13 22 15 10 8 10 15 15 17 19 15 9 10 2 16 17 18 15 18 23 15 19 23 23 10 18 18 22 13 18 15 7 6 8 9 10
3 4 4 1 4 8 7 18 12 9 20 22 19 16 17 15 7 8 13 9 4 12 11 3 9 10 21 25 19 11 24 19 28 22 20 17 20 10 18 25 20 10 11 10 10
1 3 4 4 1 4 5 6 15 14 17 6 12 18 17 11 18 13 7 4 6 4 4 7 6 12 17 24 24 28 23 22 24 28 27 24 24 21 16 11 10 7 6 8 10
3 2 4 8 10 5 5 9 16 15 11 17 20 20 17 20 14 18 12 9 8 1 5 3 5 7 10 20 23 23 31 30 25 26 30 26 24 19 16 12 6 6 8 9 8
2 4 3 6 7 7 7 9 13 16 20 24 19 15 21 21 16 17 11 13 13 7 5 2 2 2 13 11 23 19 30 33 33 22 22 27 27 15 15 15 19 15 8 9 8
Wind_Direction
331 327 328 330 333 331 335 340 345 347 342 329 315 320 317 324 318 303 273 240 244 312 336 291 302 282 269 253 262 333 338 274 273 297 318 96 73 1 97 89 47 82 95 133 143
343 332 324 323 324 323 318 329 333 339 341 334 320 314 313 329 307 279 244 220 245 322 295 300 302 312 267 266 250 141 142 239 229 359 25 336 105 104 69 90 121 112 128 139 141
341 343 326 315 314 314 314 314 322 328 333 335 321 309 316 335 293 253 55 161 203 201 252 282 285 292 291 265 252 245 218 253 276 284 17 355 356 145 134 3 188 158 156 154 160
332 334 332 322 307 306 306 302 309 318 332 338 322 311 317 302 241 179 197 187 204 228 245 277 281 296 301 279 274 260 256 242 270 173 110 325 317 344 137 218 243 125 182 161 169
322 325 326 322 317 299 299 297 296 309 322 336 333 321 328 229 235 251 221 236 242 208 226 224 254 263 251 268 271 267 266 257 264 288 180 150 295 272 294 296 324 329 135 187 180
314 313 314 317 315 305 288 291 289 299 314 325 337 327 256 253 266 272 274 268 235 248 247 232 240 250 266 261 254 276 283 275 249 301 274 218 230 246 278 279 269 272 263 225 189
312 308 309 308 310 310 286 283 284 290 305 315 324 295 247 238 287 304 315 291 266 263 279 257 301 272 301 315 271 266 285 299 284 296 279 278 298 249 244 252 238 231 242 240 219
308 304 303 301 300 300 289 276 278 280 291 300 325 294 254 270 251 271 273 284 281 249 278 292 294 302 291 316 333 314 302 263 231 273 269 182 261 253 253 232 236 230 245 236 216
312 308 301 296 291 289 286 269 272 271 274 269 305 234 262 243 235 252 239 254 275 256 264 272 289 250 327 288 323 280 246 279 287 241 245 197 243 234 244 264 251 217 232 246 238
317 310 302 292 288 279 284 263 270 281 256 232 248 292 252 248 240 226 236 238 257 270 280 222 265 212 219 187 216 220 238 250 244 255 232 247 223 234 247 236 231 204 228 248 250
317 317 308 291 280 269 287 254 201 253 194 208 204 240 274 274 297 245 209 222 229 248 241 220 203 219 220 220 244 246 245 248 253 248 247 245 200 216 235 238 238 229 217 227 226
318 311 310 311 294 253 216 225 216 61 281 224 242 249 253 276 306 272 195 202 200 222 226 233 221 214 230 232 235 242 256 264 286 279 248 254 215 213 214 231 228 208 233 232 233
317 314 309 299 315 250 227 243 276 321 271 256 213 227 225 233 241 259 225 199 204 213 214 216 223 208 223 234 238 237 233 249 252 286 284 308 293 254 260 233 252 246 228 223 215
312 316 311 315 304 217 236 230 259 263 267 264 205 228 207 218 260 248 246 217 216 211 212 234 227 230 212 232 235 243 241 242 252 263 264 94 276 267 255 248 253 253 247 230 226
310 314 300 292 308 230 226 195 214 129 239 227 227 180 185 200 188 233 244 247 220 220 202 221 208 211 234 223 223 248 245 241 246 241 252 275 279 236 248 272 274 259 254 225 210
310 306 305 298 228 244 262 232 118 182 212 261 163 179 170 207 210 268 199 221 240 237 243 239 234 210 228 238 235 232 238 259 277 226 247 239 220 251 230 229 264 275 261 222 199
307 304 305 270 258 216 230 164 200 212 231 229 214 167 188 196 212 214 230 213 202 205 224 234 234 229 234 243 246 235 205 228 248 236 240 188 253 244 242 223 239 247 253 230 186
306 305 272 243 219 232 176 230 197 182 199 232 208 205 201 192 206 209 222 230 227 226 212 224 224 219 224 224 226 231 218 193 211 222 244 242 249 238 219 236 241 237 248 180 143
312 284 257 232 209 199 187 222 215 209 203 224 258 215 205 216 220 194 219 228 229 206 220 213 233 216 223 231 212 231 231 228 242 271 176 238 268 275 246 250 237 222 158 137 133
307 281 245 232 175 179 201 222 232 217 208 219 229 229 227 197 199 227 210 218 226 217 219 247 264 218 240 216 235 218 223 214 216 222 236 239 258 239 267 241 227 196 175 170 152
271 297 278 157 141 193 205 227 230 247 249 199 222 244 248 246 217 199 185 241 237 220 217 230 247 257 279 224 215 220 228 218 205 209 219 246 252 223 266 285 2 237 200 161 167
274 288 346 125 184 224 209 211 250 230 237 249 277 227 245 265 260 237 236 204 197 229 225 215 219 243 246 262 257 220 223 219 207 225 214 223 239 122 219 232 354 234 182 179 165
287 268 292 266 195 211 218 223 253 259 238 257 253 236 259 248 259 250 248 239 223 142 334 242 223 238 253 248 259 239 244 214 213 211 222 217 244 239 284 266 278 256 241 218 192
297 301 291 27 308 213 209 235 251 253 253 253 253 253 264 274 274 292 281 258 358 258 188 238 250 240 240 228 241 234 228 239 208 219 233 231 254 225 221 237 255 253 232 205 181
217 247 300 305 230 225 250 243 239 242 231 256 257 253 255 258 254 263 273 289 284 250 183 168 252 268 257 276 234 246 251 243 231 211 219 229 240 228 225 229 233 230 176 164 157
269 269 312 278 284 276 223 224 239 244 235 228 231 243 242 245 248 252 243 251 244 301 296 113 248 216 287 261 272 256 240 249 248 225 219 229 233 230 231 232 232 230 238 196 195
218 256 263 280 279 266 247 233 251 258 250 247 240 246 241 247 245 246 272 249 241 185 158 135 222 241 274 280 254 256 244 245 242 239 225 223 232 231 231 225 233 242 220 234 219